Regional Weather Roundup
Issued by NWS

Home | Current Version | Previous Version | Text Only | Print | Product List | Glossary On
Versions: 1 2 3 4 5 6 7 8 9 10 11 12 13 14 15 16 17 18 19 20 21 22 23 24 25 26 27 28 29 30 31 32 33 34 35 36 37 38 39 40 41 42 43 44 45 46 47 48 49 50
000
ASUS44 KOUN 180110
RWROK

WEATHER ROUNDUP FOR OKLAHOMA
NATIONAL WEATHER SERVICE NORMAN OK
800 PM CDT THU AUG 17 2017

NOTE: "FAIR" INDICATES FEW OR NO CLOUDS BELOW 12,000 FEET WITH NO
      SIGNIFICANT WEATHER AND/OR OBSTRUCTIONS TO VISIBILITY.

OKZ001>007-009>012-014-015-017-180200-
NORTHWEST OKLAHOMA AND THE PANHANDLE

CITY           SKY/WX    TMP DP  RH WIND       PRES   REMARKS
GAGE           CLEAR     82  63  52 SE9       30.00S
ENID/WOODRING  PTCLDY    86  63  45 CALM      29.97R
$$

OKZ016-021>023-033>039-044-045-180200-
SOUTHWEST OKLAHOMA

CITY           SKY/WX    TMP DP  RH WIND       PRES   REMARKS
LAWTON/REGL      N/A    N/A N/A N/A NE3       29.97S
LAWTON/FT SILL CLEAR     85  74  68 SE7       29.96S HX  93
FREDERICK      CLEAR     84  72  67 E6        29.95S
CLINTON        CLEAR     84  65  52 E8        30.01S
HOBART         CLEAR     85  69  58 SE7       29.99S
ALTUS AFB      CLEAR     83  71  67 SE6       29.98R
$$

OKZ018>020-024>031-180200-
CENTRAL OKLAHOMA

CITY           SKY/WX    TMP DP  RH WIND       PRES   REMARKS
OKLAHOMA CITY  PTCLDY    83  68  60 S6        29.98R
OKC/WILEY POST CLEAR     88  65  46 CALM      29.98R HX  90
OKC/TINKER AFB CLEAR     84  69  61 SE6       29.98S
STILLWATER     CLEAR     84  63  49 N3        29.98R
GUTHRIE        CLEAR     82  68  62 E3        29.98R
$$

OKZ008-013-054>072-180200-
NORTHEAST OKLAHOMA

CITY           SKY/WX    TMP DP  RH WIND       PRES   REMARKS
TULSA          PTCLDY    83  71  67 NW5       29.94R
TULSA/JONES    CLEAR     79  70  74 CALM      29.96R
PONCA CITY     CLEAR     78  67  68 CALM      29.97R
BARTLESVILLE   CLEAR     75  70  84 CALM      29.97R
MUSKOGEE       CLEAR     81  74  79 S3        29.97R
$$

OKZ032-040>043-046>053-073>077-180200-
SOUTH CENTRAL/SOUTHEAST OKLAHOMA

CITY           SKY/WX    TMP DP  RH WIND       PRES   REMARKS
ARDMORE/DWNTWN CLEAR     82  73  74 CALM      29.97S
MCALESTER      CLEAR     83  76  79 S3        29.98R HX  91
$$





USA.gov is the U.S. government's official web portal to all federal, state and local government web resources and services.